Time,TemperatureF,DewpointF,PressureIn,WindDirection,WindDirectionDegrees,WindSpeedMPH,WindSpeedGustMPH,Humidity,HourlyPrecipIn,Conditions,Clouds,dailyrainin,SoftwareType,DateUTC
2013-01-19 00:11:00,32.6,32.0,30.34,North,5,1.0,6.0,97,0.00,,,0.00,weatherlink.com 1.10,2013-01-19 08:11:00,
2013-01-19 00:26:00,32.6,32.0,30.34,North,351,2.0,7.0,97,0.00,,,0.00,weatherlink.com 1.10,2013-01-19 08:26:00,
2013-01-19 00:43:00,32.7,32.0,30.34,North,355,3.0,5.0,97,0.00,,,0.00,weatherlink.com 1.10,2013-01-19 08:43:00,
2013-01-19 00:56:00,32.5,32.0,30.34,North,355,2.0,6.0,97,0.00,,,0.00,weatherlink.com 1.10,2013-01-19 08:56:00,
2013-01-19 01:11:00,32.6,32.0,30.34,NNW,328,2.0,7.0,97,0.00,,,0.00,weatherlink.com 1.10,2013-01-19 09:11:00,
2013-01-19 01:26:00,32.8,32.0,30.34,NNW,336,4.0,8.0,98,0.00,,,0.00,weatherlink.com 1.10,2013-01-19 09:26:00,
2013-01-19 01:42:00,32.8,32.0,30.34,NNW,341,1.0,7.0,97,0.00,,,0.00,weatherlink.com 1.10,2013-01-19 09:42:00,
2013-01-19 01:57:00,32.8,32.0,30.34,NNW,341,0.0,0.0,97,0.00,,,0.00,weatherlink.com 1.10,2013-01-19 09:57:00,
2013-01-19 02:12:00,32.5,32.0,30.35,NNW,341,1.0,2.0,97,0.00,,,0.00,weatherlink.com 1.10,2013-01-19 10:12:00,
2013-01-19 02:27:00,32.6,32.0,30.35,NNW,341,0.0,2.0,98,0.00,,,0.00,weatherlink.com 1.10,2013-01-19 10:27:00,
2013-01-19 02:42:00,32.8,32.0,30.35,NNW,341,2.0,3.0,98,0.00,,,0.00,weatherlink.com 1.10,2013-01-19 10:42:00,
2013-01-19 02:57:00,32.9,32.0,30.35,NNW,341,0.0,2.0,97,0.00,,,0.00,weatherlink.com 1.10,2013-01-19 10:57:00,
2013-01-19 03:12:00,32.6,32.0,30.35,NNW,341,0.0,2.0,97,0.00,,,0.00,weatherlink.com 1.10,2013-01-19 11:12:00,
2013-01-19 04:57:00,32.6,32.0,30.35,NNW,341,0.0,1.0,97,0.00,,,0.00,weatherlink.com 1.10,2013-01-19 12:57:00,
2013-01-19 05:12:00,32.3,32.0,30.35,NNW,341,1.0,2.0,97,0.00,,,0.00,weatherlink.com 1.10,2013-01-19 13:12:00,
2013-01-19 05:27:00,32.3,32.0,30.34,NNW,341,0.0,0.0,97,0.00,,,0.00,weatherlink.com 1.10,2013-01-19 13:27:00,
2013-01-19 05:42:00,32.2,31.0,30.34,NNW,341,0.0,1.0,96,0.00,,,0.00,weatherlink.com 1.10,2013-01-19 13:42:00,
2013-01-19 05:58:00,32.3,32.0,30.34,NNW,341,0.0,2.0,97,0.00,,,0.00,weatherlink.com 1.10,2013-01-19 13:58:00,
2013-01-19 06:12:00,32.0,31.0,30.35,NNW,341,0.0,4.0,95,0.00,,,0.00,weatherlink.com 1.10,2013-01-19 14:12:00,
2013-01-19 06:27:00,31.9,31.0,30.35,NNW,341,0.0,5.0,95,0.00,,,0.00,weatherlink.com 1.10,2013-01-19 14:27:00,
2013-01-19 06:42:00,32.2,31.0,30.35,NNW,341,0.0,2.0,96,0.00,,,0.00,weatherlink.com 1.10,2013-01-19 14:42:00,
2013-01-19 06:57:00,31.9,30.0,30.35,NNW,341,2.0,3.0,94,0.00,,,0.00,weatherlink.com 1.10,2013-01-19 14:57:00,
2013-01-19 07:13:00,31.9,31.0,30.35,NNW,341,2.0,4.0,95,0.00,,,0.00,weatherlink.com 1.10,2013-01-19 15:13:00,
2013-01-19 07:27:00,31.6,30.0,30.35,NNW,341,0.0,2.0,94,0.00,,,0.00,weatherlink.com 1.10,2013-01-19 15:27:00,
2013-01-19 07:42:00,31.9,31.0,30.35,NNW,341,0.0,4.0,95,0.00,,,0.00,weatherlink.com 1.10,2013-01-19 15:42:00,
2013-01-19 07:57:00,31.7,30.0,30.36,NNW,341,0.0,4.0,94,0.00,,,0.00,weatherlink.com 1.10,2013-01-19 15:57:00,
2013-01-19 08:12:00,31.5,30.0,30.36,NNW,341,2.0,3.0,95,0.00,,,0.00,weatherlink.com 1.10,2013-01-19 16:12:00,
2013-01-19 08:27:00,31.7,31.0,30.36,NNW,341,0.0,2.0,96,0.00,,,0.00,weatherlink.com 1.10,2013-01-19 16:27:00,
2013-01-19 08:42:00,32.1,31.0,30.36,NNW,341,0.0,0.0,97,0.00,,,0.00,weatherlink.com 1.10,2013-01-19 16:42:00,
2013-01-19 08:57:00,32.6,32.0,30.37,NNW,341,0.0,1.0,98,0.00,,,0.00,weatherlink.com 1.10,2013-01-19 16:57:00,
2013-01-19 09:27:00,33.5,33.0,30.38,NNW,341,0.0,2.0,98,0.00,,,0.00,weatherlink.com 1.10,2013-01-19 17:27:00,
2013-01-19 09:42:00,34.1,34.0,30.38,NNW,341,0.0,2.0,98,0.00,,,0.00,weatherlink.com 1.10,2013-01-19 17:42:00,
2013-01-19 10:12:00,33.7,33.0,30.38,NNW,341,2.0,3.0,98,0.00,,,0.00,weatherlink.com 1.10,2013-01-19 18:12:00,
2013-01-19 10:27:00,33.7,33.0,30.38,NNW,341,0.0,4.0,98,0.00,,,0.00,weatherlink.com 1.10,2013-01-19 18:27:00,
2013-01-19 10:42:00,33.9,33.0,30.38,NNW,344,2.0,3.0,98,0.00,,,0.00,weatherlink.com 1.10,2013-01-19 18:42:00,
2013-01-19 11:28:00,35.2,35.0,30.37,North,350,1.0,5.0,98,0.00,,,0.00,weatherlink.com 1.10,2013-01-19 19:28:00,
2013-01-19 11:42:00,36.2,36.0,30.37,North,355,4.0,4.0,98,0.00,,,0.00,weatherlink.com 1.10,2013-01-19 19:42:00,
2013-01-19 11:57:00,37.3,37.0,30.36,North,360,2.0,5.0,98,0.00,,,0.00,weatherlink.com 1.10,2013-01-19 19:57:00,
2013-01-19 12:12:00,38.2,37.0,30.36,North,360,1.0,4.0,96,0.00,,,0.00,weatherlink.com 1.10,2013-01-19 20:12:00,
2013-01-19 12:27:00,39.8,38.0,30.36,North,355,0.0,6.0,94,0.00,,,0.00,weatherlink.com 1.10,2013-01-19 20:27:00,
2013-01-19 13:58:00,41.1,38.0,30.35,NNW,331,6.0,9.0,87,0.00,,,0.00,weatherlink.com 1.10,2013-01-19 21:58:00,
2013-01-19 14:13:00,41.4,38.0,30.34,NNW,333,2.0,6.0,86,0.00,,,0.00,weatherlink.com 1.10,2013-01-19 22:13:00,
2013-01-19 14:28:00,41.0,37.0,30.34,NNW,335,3.0,6.0,86,0.00,,,0.00,weatherlink.com 1.10,2013-01-19 22:28:00,
2013-01-19 14:43:00,40.6,37.0,30.34,NNW,335,6.0,6.0,87,0.00,,,0.00,weatherlink.com 1.10,2013-01-19 22:43:00,
2013-01-19 15:13:00,39.7,37.0,30.34,NNW,334,3.0,6.0,88,0.00,,,0.00,weatherlink.com 1.10,2013-01-19 23:13:00,
2013-01-19 15:43:00,38.2,36.0,30.34,NNW,336,2.0,6.0,91,0.00,,,0.00,weatherlink.com 1.10,2013-01-19 23:43:00,
2013-01-19 15:58:00,38.2,36.0,30.34,NNW,336,2.0,5.0,92,0.00,,,0.00,weatherlink.com 1.10,2013-01-19 23:58:00,
2013-01-19 16:13:00,38.4,36.0,30.34,NNW,336,0.0,7.0,91,0.00,,,0.00,weatherlink.com 1.10,2013-01-20 00:13:00,
2013-01-19 16:28:00,37.9,36.0,30.34,NNW,338,2.0,5.0,91,0.00,,,0.00,weatherlink.com 1.10,2013-01-20 00:28:00,
2013-01-19 16:43:00,37.2,35.0,30.34,NNW,340,0.0,5.0,92,0.00,,,0.00,weatherlink.com 1.10,2013-01-20 00:43:00,
2013-01-19 16:58:00,36.4,35.0,30.34,NNW,343,5.0,6.0,93,0.00,,,0.00,weatherlink.com 1.10,2013-01-20 00:58:00,
2013-01-19 17:13:00,35.9,34.0,30.34,NNW,347,2.0,7.0,94,0.00,,,0.00,weatherlink.com 1.10,2013-01-20 01:13:00,
2013-01-19 17:28:00,35.4,34.0,30.34,North,350,3.0,8.0,95,0.00,,,0.00,weatherlink.com 1.10,2013-01-20 01:28:00,
2013-01-19 17:43:00,35.1,34.0,30.34,North,355,3.0,7.0,96,0.00,,,0.00,weatherlink.com 1.10,2013-01-20 01:43:00,
2013-01-19 17:58:00,35.0,34.0,30.35,NNW,337,5.0,9.0,96,0.00,,,0.00,weatherlink.com 1.10,2013-01-20 01:58:00,
2013-01-19 18:13:00,34.9,34.0,30.35,NNW,342,6.0,9.0,96,0.00,,,0.00,weatherlink.com 1.10,2013-01-20 02:13:00,
2013-01-19 18:28:00,34.8,34.0,30.35,NNW,342,3.0,10.0,97,0.00,,,0.00,weatherlink.com 1.10,2013-01-20 02:28:00,
2013-01-19 18:43:00,34.7,34.0,30.35,NNW,340,3.0,9.0,97,0.00,,,0.00,weatherlink.com 1.10,2013-01-20 02:43:00,
2013-01-19 18:58:00,34.6,34.0,30.35,NNW,336,4.0,7.0,97,0.00,,,0.00,weatherlink.com 1.10,2013-01-20 02:58:00,
2013-01-19 19:28:00,34.5,34.0,30.36,North,360,4.0,7.0,97,0.00,,,0.00,weatherlink.com 1.10,2013-01-20 03:28:00,
2013-01-19 19:43:00,34.8,34.0,30.36,North,11,2.0,8.0,97,0.00,,,0.00,weatherlink.com 1.10,2013-01-20 03:43:00,
2013-01-19 19:58:00,34.9,34.0,30.36,NNE,13,2.0,5.0,96,0.00,,,0.00,weatherlink.com 1.10,2013-01-20 03:58:00,
2013-01-19 20:13:00,34.7,34.0,30.36,North,5,3.0,4.0,95,0.00,,,0.00,weatherlink.com 1.10,2013-01-20 04:13:00,
2013-01-19 20:28:00,34.6,33.0,30.36,North,9,2.0,5.0,95,0.00,,,0.00,weatherlink.com 1.10,2013-01-20 04:28:00,
2013-01-19 20:43:00,34.8,34.0,30.36,North,5,3.0,5.0,96,0.00,,,0.00,weatherlink.com 1.10,2013-01-20 04:43:00,
2013-01-19 20:58:00,34.8,34.0,30.37,North,9,2.0,6.0,95,0.00,,,0.00,weatherlink.com 1.10,2013-01-20 04:58:00,
2013-01-19 21:13:00,35.0,34.0,30.37,North,5,0.0,7.0,96,0.00,,,0.00,weatherlink.com 1.10,2013-01-20 05:13:00,
2013-01-19 21:28:00,34.9,34.0,30.38,North,355,2.0,8.0,96,0.00,,,0.00,weatherlink.com 1.10,2013-01-20 05:28:00,
2013-01-19 21:43:00,34.8,34.0,30.37,North,360,3.0,5.0,96,0.00,,,0.00,weatherlink.com 1.10,2013-01-20 05:43:00,
2013-01-19 21:58:00,34.5,34.0,30.37,North,360,3.0,5.0,96,0.00,,,0.00,weatherlink.com 1.10,2013-01-20 05:58:00,
2013-01-19 22:13:00,34.4,33.0,30.37,North,5,3.0,5.0,96,0.00,,,0.00,weatherlink.com 1.10,2013-01-20 06:13:00,
2013-01-19 22:28:00,34.3,33.0,30.37,North,5,3.0,4.0,96,0.00,,,0.00,weatherlink.com 1.10,2013-01-20 06:28:00,
2013-01-19 22:43:00,34.1,33.0,30.37,North,5,2.0,3.0,95,0.00,,,0.00,weatherlink.com 1.10,2013-01-20 06:43:00,
2013-01-19 22:58:00,33.9,33.0,30.37,North,5,3.0,4.0,95,0.00,,,0.00,weatherlink.com 1.10,2013-01-20 06:58:00,
2013-01-19 23:13:00,34.1,33.0,30.38,North,5,3.0,7.0,95,0.00,,,0.00,weatherlink.com 1.10,2013-01-20 07:13:00,
2013-01-19 23:28:00,33.9,32.0,30.38,North,5,0.0,8.0,93,0.00,,,0.00,weatherlink.com 1.10,2013-01-20 07:28:00,
2013-01-19 23:43:00,34.3,33.0,30.38,North,355,3.0,7.0,95,0.00,,,0.00,weatherlink.com 1.10,2013-01-20 07:43:00,
2013-01-19 23:58:00,34.6,33.0,30.38,North,355,2.0,3.0,93,0.00,,,0.00,weatherlink.com 1.10,2013-01-20 07:58:00,